JIA5238 KCLT-KDCA

Flight info

Callsign JIA5238
Flight time 0h 55m
Altitude 31000
Route KILNS5 AUDII DCT WAVES CAPSS3
Aircraft CRJ9/M-VGD/A

Departure

Time 2026-05-06 21:20
Airport Charlotte Douglas International Airport (KCLT)

Arrival

Time 2026-05-06 22:15
Airport Ronald Reagan Washington National Airport (KDCA)
Time Latitude Longitude Altitude Speed Heading
2026-05-06 21:07 35.22685 -80.94087 727 ft 0 kts 172°
2026-05-06 21:11 35.22684 -80.94087 726 ft 0 kts 172°
2026-05-06 21:16 35.22676 -80.94085 726 ft 1 kts 167°
2026-05-06 21:16 35.22655 -80.94070 727 ft 6 kts 135°
2026-05-06 21:17 35.22641 -80.94027 730 ft 5 kts 92°
2026-05-06 21:17 35.22642 -80.93985 728 ft 5 kts 91°
2026-05-06 21:17 35.22638 -80.93945 730 ft 5 kts 102°
2026-05-06 21:17 35.22629 -80.93907 729 ft 5 kts 109°
2026-05-06 21:18 35.22614 -80.93872 729 ft 5 kts 127°
2026-05-06 21:18 35.22580 -80.93845 729 ft 7 kts 165°
2026-05-06 21:18 35.22530 -80.93838 729 ft 4 kts 169°
2026-05-06 21:18 35.22510 -80.93822 729 ft 3 kts 122°
2026-05-06 21:19 35.22503 -80.93765 730 ft 10 kts 86°
2026-05-06 21:19 35.22508 -80.93678 730 ft 10 kts 87°
2026-05-06 21:19 35.22475 -80.93617 729 ft 10 kts 164°
2026-05-06 21:19 35.22353 -80.93605 729 ft 43 kts 176°
2026-05-06 21:20 35.21767 -80.93555 723 ft 122 kts 176°
2026-05-06 21:20 35.20744 -80.93469 897 ft 167 kts 178°
2026-05-06 21:20 35.19559 -80.93397 1655 ft 171 kts 184°
2026-05-06 21:20 35.18393 -80.93410 2518 ft 168 kts 187°
2026-05-06 21:21 35.17180 -80.93371 3118 ft 186 kts 185°
2026-05-06 21:21 35.15800 -80.93347 3714 ft 208 kts 185°
2026-05-06 21:21 35.14336 -80.93343 4339 ft 216 kts 186°
2026-05-06 21:21 35.12813 -80.93329 4964 ft 223 kts 186°
2026-05-06 21:22 35.11234 -80.93303 5586 ft 230 kts 186°
2026-05-06 21:22 35.09610 -80.93269 6210 ft 236 kts 186°
2026-05-06 21:22 35.07971 -80.93219 6811 ft 242 kts 186°
2026-05-06 21:22 35.06268 -80.93064 7402 ft 254 kts 172°
2026-05-06 21:23 35.04737 -80.91844 8019 ft 278 kts 135°
2026-05-06 21:23 35.03924 -80.89671 8669 ft 292 kts 101°
2026-05-06 21:23 35.04084 -80.87199 9334 ft 294 kts 68°
2026-05-06 21:23 35.04933 -80.84949 10008 ft 292 kts 60°
2026-05-06 21:24 35.05950 -80.82805 10610 ft 294 kts 51°
2026-05-06 21:24 35.07186 -80.80772 11240 ft 303 kts 46°
2026-05-06 21:24 35.08516 -80.78727 11861 ft 313 kts 47°
2026-05-06 21:24 35.09828 -80.76554 12481 ft 324 kts 51°
2026-05-06 21:25 35.11096 -80.74233 13148 ft 333 kts 52°
2026-05-06 21:25 35.12384 -80.71824 13801 ft 342 kts 52°
2026-05-06 21:25 35.13711 -80.69368 14402 ft 350 kts 51°
2026-05-06 21:25 35.15084 -80.66866 15023 ft 359 kts 51°
2026-05-06 21:26 35.16494 -80.64314 15645 ft 366 kts 51°
2026-05-06 21:26 35.17939 -80.61707 16248 ft 373 kts 51°
2026-05-06 21:26 35.19405 -80.59047 16869 ft 379 kts 51°
2026-05-06 21:26 35.20879 -80.56363 17508 ft 385 kts 51°
2026-05-06 21:27 35.22380 -80.53629 18147 ft 389 kts 50°
2026-05-06 21:27 35.23897 -80.50861 18727 ft 393 kts 50°
2026-05-06 21:27 35.25407 -80.48110 19290 ft 396 kts 50°
2026-05-06 21:27 35.26947 -80.45301 19871 ft 399 kts 50°
2026-05-06 21:28 35.28499 -80.42468 20475 ft 402 kts 50°
2026-05-06 21:28 35.30059 -80.39618 21091 ft 403 kts 50°
2026-05-06 21:28 35.31619 -80.36762 21687 ft 404 kts 50°
2026-05-06 21:28 35.33179 -80.33902 22317 ft 404 kts 50°
2026-05-06 21:29 35.34743 -80.31039 22972 ft 403 kts 50°
2026-05-06 21:29 35.36300 -80.28186 23633 ft 402 kts 50°
2026-05-06 21:29 35.37852 -80.25335 24175 ft 401 kts 50°
2026-05-06 21:29 35.39400 -80.22505 24721 ft 399 kts 50°
2026-05-06 21:30 35.40938 -80.19673 25284 ft 396 kts 50°
2026-05-06 21:30 35.42455 -80.16867 25853 ft 393 kts 50°
2026-05-06 21:30 35.43786 -80.13943 26412 ft 394 kts 62°
2026-05-06 21:30 35.44741 -80.10801 27004 ft 391 kts 69°
2026-05-06 21:31 35.45540 -80.07641 27603 ft 385 kts 69°
2026-05-06 21:31 35.46362 -80.04591 28201 ft 377 kts 66°
2026-05-06 21:31 35.47295 -80.01582 28812 ft 368 kts 64°
2026-05-06 21:31 35.48219 -79.98734 29425 ft 359 kts 64°
2026-05-06 21:32 35.49120 -79.95914 29987 ft 352 kts 65°
2026-05-06 21:32 35.50830 -79.90343 30636 ft 345 kts 65°
2026-05-06 21:32 35.51674 -79.87578 30807 ft 348 kts 65°
2026-05-06 21:33 35.53392 -79.81926 30951 ft 359 kts 65°
2026-05-06 21:33 35.55204 -79.76058 31014 ft 376 kts 65°
2026-05-06 21:34 35.57123 -79.69915 31038 ft 395 kts 65°
2026-05-06 21:34 35.58120 -79.66716 31035 ft 406 kts 65°
2026-05-06 21:34 35.59142 -79.63435 31033 ft 417 kts 65°
2026-05-06 21:35 35.60194 -79.60068 31032 ft 428 kts 65°
2026-05-06 21:35 35.61273 -79.56616 31031 ft 439 kts 66°
2026-05-06 21:35 35.62375 -79.53065 31030 ft 450 kts 66°
2026-05-06 21:35 35.63507 -79.49433 31018 ft 460 kts 66°
2026-05-06 21:36 35.65847 -79.41926 30991 ft 480 kts 66°
2026-05-06 21:36 35.68260 -79.34106 31007 ft 498 kts 66°
2026-05-06 21:37 35.71399 -79.26469 30980 ft 503 kts 45°
2026-05-06 21:37 35.73868 -79.23434 30998 ft 502 kts 34°
2026-05-06 21:37 35.76633 -79.20880 31011 ft 504 kts 28°
2026-05-06 21:38 35.82489 -79.15930 30990 ft 518 kts 29°
2026-05-06 21:38 35.87579 -79.11259 30971 ft 524 kts 31°
2026-05-06 21:39 35.93447 -79.05856 30954 ft 529 kts 30°
2026-05-06 21:39 35.99337 -79.00426 30943 ft 524 kts 31°
2026-05-06 21:40 36.05153 -78.95075 30944 ft 520 kts 31°
2026-05-06 21:40 36.09973 -78.90626 30950 ft 520 kts 31°
2026-05-06 21:41 36.15772 -78.85261 30953 ft 522 kts 31°
2026-05-06 21:41 36.21591 -78.79859 30959 ft 524 kts 31°
2026-05-06 21:42 36.27323 -78.74230 30942 ft 527 kts 32°
2026-05-06 21:42 36.33090 -78.68610 30936 ft 527 kts 32°
2026-05-06 21:43 36.38883 -78.63008 30931 ft 528 kts 32°
2026-05-06 21:43 36.44677 -78.57401 30956 ft 528 kts 32°
2026-05-06 21:44 36.50408 -78.51852 30940 ft 528 kts 32°
2026-05-06 21:44 36.56204 -78.46214 30938 ft 529 kts 32°
2026-05-06 21:45 36.62001 -78.40577 30929 ft 529 kts 32°
2026-05-06 21:45 36.67796 -78.34919 30947 ft 529 kts 31°
2026-05-06 21:46 36.73612 -78.29259 30931 ft 531 kts 31°
2026-05-06 21:46 36.79421 -78.23563 30964 ft 531 kts 31°
2026-05-06 21:47 36.85196 -78.17892 30958 ft 532 kts 31°
2026-05-06 21:47 36.91062 -78.12136 30921 ft 533 kts 31°
2026-05-06 21:48 36.96854 -78.06432 30912 ft 534 kts 31°
2026-05-06 21:48 37.02633 -78.00730 30910 ft 534 kts 31°
2026-05-06 21:49 37.08182 -77.95240 30908 ft 534 kts 32°
2026-05-06 21:49 37.14046 -77.89521 30871 ft 536 kts 32°
2026-05-06 21:50 37.16958 -77.86672 30681 ft 526 kts 32°
2026-05-06 21:50 37.19804 -77.83855 30482 ft 517 kts 33°
2026-05-06 21:50 37.22595 -77.81077 30295 ft 510 kts 33°
2026-05-06 21:50 37.25358 -77.78332 30085 ft 503 kts 33°
2026-05-06 21:51 37.28065 -77.75628 29886 ft 498 kts 33°
2026-05-06 21:51 37.30766 -77.72932 29512 ft 488 kts 33°
2026-05-06 21:51 37.33382 -77.70305 29108 ft 478 kts 32°
2026-05-06 21:51 37.35962 -77.67688 28695 ft 476 kts 32°
2026-05-06 21:52 37.38564 -77.65067 28305 ft 484 kts 32°
2026-05-06 21:52 37.41198 -77.62433 27891 ft 489 kts 32°
2026-05-06 21:52 37.43883 -77.59754 27403 ft 495 kts 32°
2026-05-06 21:52 37.46586 -77.57060 26912 ft 491 kts 32°
2026-05-06 21:53 37.49199 -77.54471 26438 ft 478 kts 32°
2026-05-06 21:53 37.51779 -77.51902 25954 ft 467 kts 32°
2026-05-06 21:53 37.54285 -77.49373 25500 ft 458 kts 31°
2026-05-06 21:53 37.56687 -77.46916 25035 ft 454 kts 31°
2026-05-06 21:54 37.59304 -77.44849 24560 ft 435 kts 14°
2026-05-06 21:54 37.62106 -77.43572 24117 ft 424 kts
2026-05-06 21:54 37.64947 -77.42695 23678 ft 417 kts
2026-05-06 21:54 37.67779 -77.41936 23198 ft 415 kts
2026-05-06 21:55 37.70603 -77.41174 22678 ft 414 kts
2026-05-06 21:55 37.73442 -77.40342 22158 ft 413 kts
2026-05-06 21:55 37.76188 -77.39500 21657 ft 409 kts
2026-05-06 21:55 37.78938 -77.38638 21120 ft 405 kts
2026-05-06 21:56 37.81652 -77.37788 20579 ft 398 kts
2026-05-06 21:56 37.84324 -77.36960 20040 ft 393 kts
2026-05-06 21:56 37.86973 -77.36148 19521 ft 388 kts
2026-05-06 21:56 37.89589 -77.35342 18996 ft 384 kts
2026-05-06 21:57 37.92090 -77.34559 18506 ft 381 kts
2026-05-06 21:57 37.94730 -77.33743 17975 ft 377 kts
2026-05-06 21:57 37.97264 -77.32969 17457 ft 372 kts
2026-05-06 21:57 37.99747 -77.32198 16938 ft 369 kts
2026-05-06 21:58 38.02230 -77.31442 16438 ft 365 kts
2026-05-06 21:58 38.04684 -77.30693 15935 ft 362 kts
2026-05-06 21:58 38.07133 -77.29950 15446 ft 360 kts
2026-05-06 21:58 38.09569 -77.29196 14959 ft 361 kts
2026-05-06 21:59 38.12010 -77.28404 14486 ft 361 kts
2026-05-06 21:59 38.14415 -77.27643 14028 ft 361 kts
2026-05-06 21:59 38.16853 -77.26877 13557 ft 358 kts
2026-05-06 21:59 38.19236 -77.26130 13251 ft 348 kts
2026-05-06 22:00 38.21534 -77.25326 13130 ft 336 kts
2026-05-06 22:00 38.23735 -77.24489 12931 ft 327 kts
2026-05-06 22:00 38.25920 -77.23666 12658 ft 329 kts
2026-05-06 22:00 38.28125 -77.22833 12394 ft 333 kts
2026-05-06 22:01 38.30348 -77.21987 12144 ft 335 kts 10°
2026-05-06 22:01 38.32601 -77.21143 11903 ft 337 kts 10°
2026-05-06 22:01 38.34863 -77.20289 11638 ft 339 kts 10°
2026-05-06 22:01 38.37140 -77.19444 11350 ft 342 kts 10°
2026-05-06 22:02 38.39427 -77.18551 11063 ft 345 kts 12°
2026-05-06 22:02 38.41717 -77.17648 10797 ft 346 kts 11°
2026-05-06 22:02 38.44025 -77.16751 10513 ft 347 kts 11°
2026-05-06 22:02 38.46315 -77.15871 10267 ft 341 kts 11°
2026-05-06 22:03 38.48551 -77.15006 10137 ft 331 kts 11°
2026-05-06 22:03 38.50715 -77.14171 10072 ft 320 kts 11°
2026-05-06 22:03 38.52820 -77.13364 10042 ft 310 kts 10°
2026-05-06 22:03 38.54859 -77.12587 10028 ft 309 kts 10°
2026-05-06 22:04 38.56944 -77.11791 10025 ft 311 kts 11°
2026-05-06 22:04 38.59015 -77.10987 10037 ft 318 kts 11°
2026-05-06 22:04 38.61151 -77.10150 10041 ft 321 kts 11°
2026-05-06 22:04 38.63277 -77.09325 10035 ft 318 kts 11°
2026-05-06 22:05 38.65415 -77.08500 9809 ft 323 kts 10°
2026-05-06 22:05 38.67553 -77.07685 9482 ft 316 kts 11°
2026-05-06 22:05 38.69657 -77.06978 9220 ft 306 kts
2026-05-06 22:05 38.71739 -77.06659 8956 ft 297 kts 357°
2026-05-06 22:06 38.73791 -77.06501 8684 ft 295 kts 356°
2026-05-06 22:06 38.75845 -77.06402 8422 ft 293 kts 349°
2026-05-06 22:06 38.77731 -77.07109 8103 ft 279 kts 325°
2026-05-06 22:06 38.79382 -77.08379 7782 ft 277 kts 320°
2026-05-06 22:07 38.80958 -77.09752 7444 ft 278 kts 320°
2026-05-06 22:07 38.82485 -77.11102 7139 ft 279 kts 319°
2026-05-06 22:07 38.84012 -77.12585 6811 ft 271 kts 313°
2026-05-06 22:07 38.85360 -77.14228 6477 ft 263 kts 309°
2026-05-06 22:08 38.86619 -77.15879 6231 ft 254 kts 309°
2026-05-06 22:08 38.87831 -77.17474 5977 ft 246 kts 309°
2026-05-06 22:08 38.89015 -77.19016 5619 ft 239 kts 309°
2026-05-06 22:08 38.90165 -77.20467 5280 ft 235 kts 310°
2026-05-06 22:09 38.91327 -77.21917 4885 ft 234 kts 311°
2026-05-06 22:09 38.92498 -77.23387 4336 ft 237 kts 311°
2026-05-06 22:09 38.93743 -77.24742 3849 ft 233 kts 316°
2026-05-06 22:09 38.94928 -77.26057 3393 ft 220 kts 320°
2026-05-06 22:10 38.96359 -77.26512 2871 ft 215 kts
2026-05-06 22:10 38.97643 -77.25656 2443 ft 207 kts 46°
2026-05-06 22:10 38.98115 -77.24028 2175 ft 190 kts 93°
2026-05-06 22:10 38.97985 -77.22418 2113 ft 173 kts 103°
2026-05-06 22:11 38.97777 -77.20930 2081 ft 170 kts 109°
2026-05-06 22:11 38.97486 -77.19455 2062 ft 174 kts 111°
2026-05-06 22:11 38.97155 -77.17931 2052 ft 180 kts 112°
2026-05-06 22:11 38.96804 -77.16370 2045 ft 183 kts 109°
2026-05-06 22:12 38.96444 -77.14840 1886 ft 174 kts 117°
2026-05-06 22:12 38.95781 -77.13605 1847 ft 166 kts 152°
2026-05-06 22:12 38.94773 -77.12794 1857 ft 181 kts 155°
2026-05-06 22:12 38.93702 -77.11975 1852 ft 179 kts 154°
2026-05-06 22:13 38.92658 -77.11083 1684 ft 181 kts 148°
2026-05-06 22:13 38.91760 -77.09957 1467 ft 181 kts 136°
2026-05-06 22:13 38.91021 -77.08653 1270 ft 179 kts 128°
2026-05-06 22:13 38.90428 -77.07234 1004 ft 180 kts 124°
2026-05-06 22:14 38.89617 -77.06099 827 ft 169 kts 148°
2026-05-06 22:14 38.88710 -77.05167 683 ft 158 kts 146°
2026-05-06 22:14 38.87895 -77.04403 464 ft 138 kts 149°
2026-05-06 22:14 38.87054 -77.03948 217 ft 128 kts 175°
2026-05-06 22:15 38.86224 -77.03868 41 ft 114 kts 178°
2026-05-06 22:15 38.85559 -77.03817 24 ft 66 kts 175°
2026-05-06 22:15 38.85353 -77.03796 21 ft 24 kts 177°
2026-05-06 22:15 38.85260 -77.03872 19 ft 14 kts 262°
2026-05-06 22:16 38.85317 -77.03934 20 ft 9 kts 341°
2026-05-06 22:16 38.85337 -77.03959 21 ft 4 kts 288°
2026-05-06 22:16 38.85338 -77.03963 21 ft 1 kts 286°
2026-05-06 22:16 38.85340 -77.03984 21 ft 5 kts 271°
2026-05-06 22:17 38.85333 -77.04041 22 ft 8 kts 255°
2026-05-06 22:17 38.85315 -77.04113 23 ft 9 kts 250°
2026-05-06 22:17 38.85307 -77.04140 25 ft 3 kts 248°
2026-05-06 22:17 38.85285 -77.04162 23 ft 6 kts 189°
2026-05-06 22:18 38.85259 -77.04160 23 ft 0 kts 171°